Date,TemperatureHighF,TemperatureAvgF,TemperatureLowF,DewpointHighF,DewpointAvgF,DewpointLowF,HumidityHigh,HumidityAvg,HumidityLow,PressureMaxIn,PressureMinIn,WindSpeedMaxMPH,WindSpeedAvgMPH,GustSpeedMaxMPH,PrecipitationSumIn
2013-4-1,61.1,45.3,34.9,46.0,35.7,12.0,98,73,35,29.93,29.63,12,3,22,0.01
2013-4-2,41.9,35.3,29.6,17.0,12.4,8.0,59,40,27,30.11,29.93,17,4,28,0.00
2013-4-3,44.5,36.6,30.1,15.0,12.4,9.0,53,38,26,30.33,30.10,12,4,22,0.00
2013-4-4,54.6,40.5,27.3,31.0,20.0,14.0,63,45,26,30.41,30.10,8,2,17,0.00
2013-4-5,61.1,47.0,38.3,29.0,22.8,15.0,66,42,20,30.09,29.75,13,3,19,0.00
2013-4-6,51.0,41.3,33.0,28.0,14.4,4.0,71,37,15,30.33,30.02,10,3,14,0.00
2013-4-7,55.0,46.5,34.6,43.0,35.1,25.0,87,66,41,30.33,30.02,12,3,17,0.00
2013-4-8,74.0,57.3,42.4,46.0,42.1,38.0,96,62,27,30.11,30.01,9,2,12,0.00
2013-4-9,79.4,66.5,48.4,52.0,43.6,36.0,91,49,22,30.02,29.92,15,3,21,0.00
2013-4-10,71.0,61.1,50.8,56.0,50.2,41.0,97,70,43,29.96,29.84,7,2,16,0.67
2013-4-11,62.1,53.1,43.7,57.0,46.0,36.0,97,79,55,30.08,29.81,7,2,9,0.03
2013-4-12,45.5,41.4,38.6,40.0,37.8,33.0,97,88,68,30.07,29.76,15,4,20,0.60
2013-4-13,57.3,47.5,37.9,41.0,36.1,32.0,97,69,41,29.99,29.79,10,2,14,0.03
2013-4-14,54.1,49.3,44.0,36.0,30.1,26.0,67,49,34,30.25,29.99,10,2,20,0.00
2013-4-15,57.9,47.8,37.9,34.0,31.0,27.0,73,54,39,30.40,30.26,8,2,11,0.00
2013-4-16,62.7,54.9,44.5,54.0,47.3,35.0,83,76,66,30.40,30.13,9,2,14,0.00
2013-4-17,67.3,60.1,51.8,56.0,43.6,34.0,90,58,33,30.31,30.14,8,2,9,0.00
2013-4-18,59.3,52.6,45.1,52.0,42.3,34.0,92,70,42,30.37,30.14,9,2,12,0.00
2013-4-19,72.0,62.8,53.7,63.0,58.9,52.0,98,87,72,30.13,29.66,8,2,14,0.38
2013-4-20,61.1,51.7,42.7,59.0,35.1,24.0,94,57,30,30.33,29.69,11,3,18,0.18
2013-4-21,52.0,43.1,32.9,27.0,21.7,18.0,66,44,27,30.65,30.34,11,2,11,0.00
2013-4-22,53.0,45.0,35.3,35.0,29.7,22.0,85,58,32,30.71,30.54,8,2,14,0.00
2013-4-23,51.3,43.4,37.6,41.0,36.6,31.0,90,77,68,30.53,30.15,5,2,8,0.00
2013-4-24,70.5,52.8,36.4,51.0,44.3,35.0,97,75,49,30.15,29.85,10,2,13,0.00
2013-4-25,63.5,54.3,44.3,53.0,30.4,20.0,88,45,19,30.29,29.88,10,3,22,0.00
2013-4-26,65.2,53.6,39.6,35.0,30.6,19.0,78,46,18,30.45,30.29,7,2,14,0.00
2013-4-27,68.0,56.0,42.1,35.0,29.9,27.0,63,39,23,30.46,30.30,6,1,9,0.00
2013-4-28,70.2,55.7,40.3,43.0,35.3,28.0,78,49,29,30.34,30.22,6,1,13,0.00
2013-4-29,55.2,53.5,51.0,50.0,46.0,36.0,91,76,52,30.27,30.22,4,1,8,0.03
2013-4-30,66.5,56.9,46.8,47.0,38.8,27.0,84,55,26,30.36,30.24,5,1,8,0.00